Terminal Aerodrome Forecast
Issued by NWS

Home | Current Version | Previous Version | Graphics & Text | Print | Product List | Glossary On
Versions: 1 2 3 4 5 6 7 8 9 10 11 12 13 14 15 16 17 18
136
FTUS42 KMHX 030540
TAFPGV
TAF
KPGV 030540Z 0306/0406 10003KT P6SM SCT008 BKN030
     FM030800 09003KT 3SM BR OVC007
     FM031330 19012G19KT P6SM SCT025 BKN100
     FM031800 20017G24KT 6SM SHRA BKN045
     FM040100 19014G22KT 4SM SHRA BR VCTS OVC020CB
      AMD LTD TO CLD VIS AND WIND=

USA.gov is the U.S. government's official web portal to all federal, state and local government web resources and services.